"Pseudo-MPEC" for TF26H82

Created 2026 Aug 17 8:35:30 UT using Find_Orb

Click here for an explanation of pseudo-MPECs

 
 Astrometry: 
     TF26H82* C2026 08 17.31151421 01 26.518+13 19 34.14   ~8H85 18.37GVNEOCPU74
     TF26H82  C2026 08 17.31251621 01 22.455+13 21 08.92   ~8H85 18.37GVNEOCPU74

Station data:
(U74) JPL SynTrack Robotic Telescope 2, Auberry  (N37.070341 W119.412800)
   US/California.  Observers N. Saini, C. Zhai, R. Trahan, M. Zhan, M. Shao.
   0.36-m f/2.2 Schmidt.

Orbital elements:  TF26H82
   Perihelion 2026 Oct 18.421942 +/- 51.5 TT = 10:07:35.8 (JD 2461331.921942)
Epoch 2026 Aug 17.0 TT = JDT 2461269.5   Earth MOID: 0.0118   Ve: 0.0447
M 312.786040965 +/- 39              (J2000 ecliptic)             AutoNEOCP
n   0.756367988 +/- 0.419           Peri.  102.356824 +/- 110
a   1.193018805 +/- 0.441           Node   322.579166 +/- 59
e   0.46476521 +/- 0.276            Incl.   14.845933 +/- 16
P   1.303/475.950d         H 26.58  G  0.15   U 12.2  SR
q 0.638545159 +/- 0.166    Q 1.747492450 +/- 22.1
From 2 observations 2026 Aug. 17 (86.6 sec); mean residual 0".00
Residuals in arcseconds: 
260817 U74  .01+  .00     260817 U74  .01+  .00     

Ephemerides (geocentric):
Date (UTC) HH   RA             Dec           delta  r     elong  mag " sig PA
---- --------  ------------   ------------  ------ ------ -----  --- --------
2026 08 17 09  20 57 17.845   +15 05 38.00  .01394 1.0244 149.0 18.7 926' 108
2026 08 17 10  20 54 25.392   +16 14 47.73  .01375 1.0241 147.7 18.7  24d  97
2026 08 17 11  20 51 26.079   +17 25 42.36  .01357 1.0237 146.3 18.7  29d 102
2026 08 17 12  20 48 19.555   +18 38 19.88  .01339 1.0234 144.9 18.7  29d 103
2026 08 17 13  20 45 05.447   +19 52 37.50  .01323 1.0231 143.4 18.7  32d 101
2026 08 17 14  20 41 43.366   +21 08 31.61  .01307 1.0227 142.0 18.7  33d 101
2026 08 17 15  20 38 12.902   +22 25 57.67  .01292 1.0224 140.4 18.7  36d  97
2026 08 17 16  20 34 33.628   +23 44 50.19  .01278 1.0221 138.9 18.8  38d  98
2026 08 17 17  20 30 45.098   +25 05 02.68  .01265 1.0217 137.3 18.8  39d  99
2026 08 17 18  20 26 46.845   +26 26 27.60  .01253 1.0214 135.7 18.8  39d 100
2026 08 17 19  20 22 38.390   +27 48 56.31  .01242 1.0210 134.0 18.8  39d 100
2026 08 17 20  20 18 19.234   +29 12 19.13  .01232 1.0207 132.3 18.9  40d 100
2026 08 17 21  20 13 48.866   +30 36 25.29  .01224 1.0204 130.6 18.9  40d 100
2026 08 17 22  20 09 06.767   +32 01 02.97  .01216 1.0200 128.9 18.9  41d 100
2026 08 17 23  20 04 12.408   +33 25 59.38  .01209 1.0197 127.1 19.0  41d 100
2026 08 18 00  19 59 05.259   +34 51 00.82  .01204 1.0193 125.4 19.0  41d 100
2026 08 18 01  19 53 44.794   +36 15 52.77  .01200 1.0190 123.6 19.0  41d 101
2026 08 18 02  19 48 10.500   +37 40 20.00  .01197 1.0187 121.8 19.1  41d 101
2026 08 18 03  19 42 21.881   +39 04 06.75  .01195 1.0183 120.0 19.1  40d 102
2026 08 18 04  19 36 18.474   +40 26 56.84  .01194 1.0180 118.2 19.2  40d 102
2026 08 18 05  19 29 59.856   +41 48 33.89  .01194 1.0176 116.4 19.2  39d 102
2026 08 18 06  19 23 25.663   +43 08 41.45  .01196 1.0173 114.6 19.3  39d 102
2026 08 18 07  19 16 35.600   +44 27 03.25  .01199 1.0170 112.8 19.4  38d 102
2026 08 18 08  19 09 29.462   +45 43 23.34  .01203 1.0166 111.0 19.4  38d 102
2026 08 18 09  19 02 07.150   +46 57 26.33  .01208 1.0163 109.2 19.5  37d 103
2026 08 18 10  18 54 28.691   +48 08 57.57  .01214 1.0159 107.4 19.5  37d 103
2026 08 18 11  18 46 34.259   +49 17 43.33  .01222 1.0156 105.7 19.6  36d 103
2026 08 18 12  18 38 24.190   +50 23 30.98  .01230 1.0153 104.0 19.7  36d 104
2026 08 18 13  18 29 59.002   +51 26 09.15  .01240 1.0149 102.3 19.8  35d 104
2026 08 18 14  18 21 19.407   +52 25 27.90  .01250 1.0146 100.6 19.8  35d 104
2026 08 18 15  18 12 26.323   +53 21 18.80  .01262 1.0142  99.0 19.9  34d 105
2026 08 18 16  18 03 20.878   +54 13 35.07  .01275 1.0139  97.4 20.0  34d 105
2026 08 18 17  17 54 04.404   +55 02 11.67  .01289 1.0136  95.8 20.1  34d 106
2026 08 18 18  17 44 38.437   +55 47 05.30  .01303 1.0132  94.3 20.2  33d 106
2026 08 18 19  17 35 04.689   +56 28 14.49  .01319 1.0129  92.8 20.2  33d 107
2026 08 18 20  17 25 25.028   +57 05 39.52  .01335 1.0125  91.3 20.3  32d 107
2026 08 18 21  17 15 41.445   +57 39 22.41  .01352 1.0122  89.9 20.4  32d 108
2026 08 18 22  17 05 56.014   +58 09 26.83  .01370 1.0119  88.5 20.5  32d 108
2026 08 18 23  16 56 10.848   +58 35 57.99  .01389 1.0115  87.1 20.6  31d 109
2026 08 19 00  16 46 28.055   +58 59 02.49  .01409 1.0112  85.8 20.7  31d 109
2026 08 19 01  16 36 49.690   +59 18 48.17  .01429 1.0108  84.5 20.8  31d 109
2026 08 19 02  16 27 17.718   +59 35 23.90  .01450 1.0105  83.3 20.8  31d 110
2026 08 19 03  16 17 53.970   +59 48 59.39  .01472 1.0102  82.0 20.9  31d 110
2026 08 19 04  16 08 40.118   +59 59 44.99  .01494 1.0098  80.9 21.0  31d 110
2026 08 19 05  15 59 37.643   +60 07 51.52  .01517 1.0095  79.7 21.1  31d 110
2026 08 19 06  15 50 47.831   +60 13 30.01  .01540 1.0091  78.6 21.2  31d 111
2026 08 19 07  15 42 11.756   +60 16 51.59  .01565 1.0088  77.5 21.3  31d 111
2026 08 19 08  15 33 50.282   +60 18 07.30  .01589 1.0085  76.5 21.4  31d 111